TimeEST,TemperatureF,Dew PointF,Humidity,Sea Level PressureIn,VisibilityMPH,Wind Direction,Wind SpeedMPH,Gust SpeedMPH,PrecipitationIn,Events,Conditions,WindDirDegrees,DateUTC
12:14 AM,45.0,37.6,75,30.13,10.0,NNE,3.5,-,N/A,,Overcast,30,2012-11-10 05:14:00
12:35 AM,45.0,37.9,76,30.13,10.0,Calm,Calm,-,N/A,,Overcast,0,2012-11-10 05:35:00
12:55 AM,45.0,38.3,77,30.13,10.0,Calm,Calm,-,N/A,,Overcast,0,2012-11-10 05:55:00
1:15 AM,44.8,38.7,79,30.13,10.0,NNE,3.5,-,N/A,,Overcast,30,2012-11-10 06:15:00
1:35 AM,44.8,38.8,80,30.12,10.0,NNE,3.5,-,N/A,,Overcast,30,2012-11-10 06:35:00
1:55 AM,44.8,38.8,80,30.13,10.0,Calm,Calm,-,N/A,,Overcast,0,2012-11-10 06:55:00
2:15 AM,44.6,39.2,81,30.13,10.0,Calm,Calm,-,N/A,,Overcast,0,2012-11-10 07:15:00
2:35 AM,44.8,39.2,81,30.13,10.0,Calm,Calm,-,N/A,,Overcast,0,2012-11-10 07:35:00
2:55 AM,44.8,39.2,81,30.13,10.0,Calm,Calm,-,N/A,,Overcast,0,2012-11-10 07:55:00
3:15 AM,45.0,39.2,80,30.13,10.0,NNE,3.5,-,N/A,,Overcast,30,2012-11-10 08:15:00
3:35 AM,45.0,39.2,80,30.12,10.0,Calm,Calm,-,N/A,,Overcast,0,2012-11-10 08:35:00
3:54 AM,45.5,39.2,79,30.12,10.0,NNE,3.5,-,N/A,,Overcast,30,2012-11-10 08:54:00
4:15 AM,45.5,39.2,79,30.12,7.0,Calm,Calm,-,N/A,,Overcast,0,2012-11-10 09:15:00
4:35 AM,45.7,39.2,78,30.12,7.0,Calm,Calm,-,N/A,,Overcast,0,2012-11-10 09:35:00
4:55 AM,45.9,38.8,76,30.11,7.0,Calm,Calm,-,N/A,,Overcast,0,2012-11-10 09:55:00
5:15 AM,45.9,38.5,75,30.11,7.0,East,3.5,-,N/A,,Overcast,100,2012-11-10 10:15:00
5:35 AM,45.9,38.1,74,30.10,7.0,Calm,Calm,-,N/A,,Overcast,0,2012-11-10 10:35:00
5:55 AM,45.9,37.9,74,30.10,7.0,East,6.9,-,N/A,,Overcast,90,2012-11-10 10:55:00
6:15 AM,45.9,37.9,74,30.11,7.0,East,3.5,-,N/A,,Overcast,90,2012-11-10 11:15:00
6:35 AM,45.9,37.9,74,30.10,7.0,East,5.8,-,N/A,,Overcast,80,2012-11-10 11:35:00
6:55 AM,45.7,38.3,75,30.10,7.0,East,5.8,-,N/A,,Overcast,90,2012-11-10 11:55:00
7:35 AM,45.9,38.8,76,30.08,5.0,ESE,11.5,16.1,N/A,,Haze,110,2012-11-10 12:35:00
7:55 AM,46.0,39.2,77,30.10,4.0,East,5.8,-,N/A,,Haze,100,2012-11-10 12:55:00
8:15 AM,46.0,39.4,78,30.10,4.0,ESE,8.1,-,N/A,,Haze,120,2012-11-10 13:15:00
8:34 AM,45.5,40.3,82,30.12,2.5,Calm,Calm,-,N/A,Rain,Light Rain,0,2012-11-10 13:34:00
8:55 AM,45.0,41.0,86,30.11,2.5,East,4.6,-,N/A,Rain,Light Rain,80,2012-11-10 13:55:00
9:15 AM,44.8,41.2,87,30.08,1.8,East,9.2,-,N/A,Rain,Light Rain,80,2012-11-10 14:15:00
9:35 AM,45.0,41.5,88,30.11,1.5,ENE,4.6,-,N/A,Rain,Light Rain,60,2012-11-10 14:35:00
9:55 AM,44.8,41.9,90,30.10,1.2,East,5.8,-,N/A,Rain,Light Rain,100,2012-11-10 14:55:00
10:15 AM,44.8,41.9,90,30.09,2.5,East,6.9,-,N/A,Rain,Light Rain,90,2012-11-10 15:15:00
10:35 AM,45.0,41.7,88,30.08,3.0,Calm,Calm,-,N/A,,Overcast,0,2012-11-10 15:35:00
10:55 AM,45.5,41.5,86,30.08,3.0,East,3.5,-,N/A,,Overcast,100,2012-11-10 15:55:00
11:15 AM,45.7,41.9,87,30.08,3.0,East,5.8,-,N/A,,Overcast,100,2012-11-10 16:15:00
11:35 AM,45.9,41.9,86,30.05,3.0,East,4.6,-,N/A,,Overcast,80,2012-11-10 16:35:00
11:55 AM,46.2,41.9,85,30.05,3.0,East,4.6,-,N/A,,Overcast,100,2012-11-10 16:55:00
12:15 PM,46.4,41.9,84,30.04,3.0,East,4.6,-,N/A,,Overcast,100,2012-11-10 17:15:00
12:35 PM,46.4,41.9,84,30.03,3.0,ESE,5.8,-,N/A,,Overcast,110,2012-11-10 17:35:00
12:55 PM,46.4,42.4,86,30.01,2.5,East,4.6,-,N/A,,Overcast,100,2012-11-10 17:55:00
1:16 PM,46.6,43.0,87,29.98,2.5,ENE,4.6,-,N/A,,Overcast,70,2012-11-10 18:16:00
1:35 PM,47.1,43.2,86,29.97,3.0,Calm,Calm,-,N/A,,Overcast,0,2012-11-10 18:35:00
1:55 PM,47.5,43.5,86,29.97,4.0,East,5.8,-,N/A,,Overcast,90,2012-11-10 18:55:00
2:15 PM,48.0,43.3,84,29.97,4.0,East,4.6,-,N/A,,Haze,90,2012-11-10 19:15:00
2:35 PM,48.2,43.7,84,29.95,4.0,East,6.9,-,N/A,,Overcast,90,2012-11-10 19:35:00
2:55 PM,48.7,43.9,83,29.95,4.0,ESE,8.1,-,N/A,,Haze,110,2012-11-10 19:55:00
3:15 PM,49.1,43.9,82,29.94,4.0,ESE,4.6,-,N/A,,Haze,110,2012-11-10 20:15:00
3:35 PM,49.1,43.9,82,29.93,4.0,ESE,3.5,-,N/A,,Haze,110,2012-11-10 20:35:00
3:55 PM,49.1,43.9,82,29.93,4.0,East,6.9,-,N/A,,Haze,100,2012-11-10 20:55:00
4:15 PM,49.5,44.1,82,29.92,4.0,East,3.5,-,N/A,,Haze,90,2012-11-10 21:15:00
4:35 PM,49.6,44.2,82,29.92,4.0,ESE,6.9,-,N/A,,Haze,110,2012-11-10 21:35:00
4:56 PM,50.0,44.2,81,29.91,4.0,East,5.8,-,N/A,,Haze,100,2012-11-10 21:56:00
5:15 PM,49.5,44.2,82,29.91,3.0,ESE,3.5,-,N/A,Rain,Light Rain,110,2012-11-10 22:15:00
5:35 PM,50.0,44.2,81,29.91,4.0,SSE,6.9,-,N/A,,Haze,150,2012-11-10 22:35:00
5:55 PM,50.0,44.6,82,29.91,4.0,SE,5.8,-,N/A,,Overcast,140,2012-11-10 22:55:00
6:15 PM,50.0,44.6,82,29.92,4.0,SE,3.5,-,N/A,,Mostly Cloudy,130,2012-11-10 23:15:00
6:36 PM,50.0,44.8,82,29.91,5.0,SE,6.9,-,N/A,,Haze,130,2012-11-10 23:36:00
6:55 PM,50.0,44.6,82,29.91,5.0,Calm,Calm,-,N/A,,Haze,0,2012-11-10 23:55:00
7:15 PM,50.2,44.6,81,29.91,5.0,South,3.5,-,N/A,,Haze,170,2012-11-11 00:15:00
7:36 PM,50.0,44.6,82,29.91,5.0,SSE,5.8,-,N/A,,Haze,160,2012-11-11 00:36:00
7:55 PM,49.6,44.6,83,29.91,5.0,SSW,3.5,-,N/A,,Haze,200,2012-11-11 00:55:00
8:15 PM,50.7,44.8,80,29.92,7.0,South,4.6,-,N/A,,Clear,190,2012-11-11 01:15:00
8:36 PM,51.4,45.5,80,29.90,7.0,South,8.1,-,N/A,,Clear,170,2012-11-11 01:36:00
8:55 PM,52.3,45.5,78,29.89,7.0,SSE,5.8,-,N/A,,Scattered Clouds,160,2012-11-11 01:55:00
9:15 PM,53.6,45.9,75,29.88,7.0,SSE,10.4,16.1,N/A,,Clear,160,2012-11-11 02:15:00
9:35 PM,54.0,46.0,75,29.87,10.0,SSE,13.8,17.3,N/A,,Clear,160,2012-11-11 02:35:00
9:55 PM,53.8,46.0,75,29.87,10.0,South,5.8,-,N/A,,Clear,180,2012-11-11 02:55:00
10:16 PM,53.4,46.0,76,29.86,10.0,South,4.6,-,N/A,,Clear,190,2012-11-11 03:16:00
10:35 PM,53.2,46.4,78,29.85,10.0,South,5.8,-,N/A,,Clear,190,2012-11-11 03:35:00
10:55 PM,54.1,46.6,76,29.85,10.0,SSW,6.9,-,N/A,,Clear,200,2012-11-11 03:55:00
11:15 PM,53.8,46.6,77,29.85,10.0,South,4.6,-,N/A,,Clear,180,2012-11-11 04:15:00
11:35 PM,54.0,46.4,76,29.85,10.0,South,5.8,-,N/A,,Clear,180,2012-11-11 04:35:00
11:55 PM,52.7,46.4,79,29.85,10.0,South,3.5,-,N/A,,Clear,190,2012-11-11 04:55:00